TimeCDT,TemperatureF,Dew PointF,Humidity,Sea Level PressureIn,VisibilityMPH,Wind Direction,Wind SpeedMPH,Gust SpeedMPH,PrecipitationIn,Events,Conditions,WindDirDegrees,DateUTC
12:15 AM,45.0,38.7,79,30.11,10.0,NW,10.4,-,N/A,,Overcast,310,2013-10-16 05:15:00
12:35 AM,45.0,38.7,79,30.11,10.0,WNW,9.2,-,N/A,,Overcast,300,2013-10-16 05:35:00
12:55 AM,45.0,38.5,78,30.11,10.0,WNW,8.1,-,N/A,,Overcast,290,2013-10-16 05:55:00
1:15 AM,44.8,38.5,79,30.11,10.0,WNW,11.5,-,N/A,,Overcast,290,2013-10-16 06:15:00
1:35 AM,44.6,38.5,79,30.12,10.0,WNW,9.2,-,N/A,,Overcast,290,2013-10-16 06:35:00
1:55 AM,44.8,38.3,78,30.11,10.0,WNW,9.2,-,N/A,,Overcast,290,2013-10-16 06:55:00
2:15 AM,45.0,38.3,77,30.12,10.0,WNW,10.4,-,N/A,,Overcast,290,2013-10-16 07:15:00
2:35 AM,45.0,38.3,77,30.12,10.0,WNW,10.4,-,N/A,,Overcast,300,2013-10-16 07:35:00
2:55 AM,45.0,38.3,77,30.11,10.0,WNW,9.2,-,N/A,,Overcast,300,2013-10-16 07:55:00
3:15 AM,44.8,38.1,77,30.11,10.0,WNW,11.5,-,N/A,,Overcast,300,2013-10-16 08:15:00
3:35 AM,44.8,38.1,77,30.10,10.0,NW,10.4,-,N/A,,Overcast,310,2013-10-16 08:35:00
3:55 AM,44.6,38.1,78,30.09,10.0,NW,11.5,-,N/A,,Overcast,310,2013-10-16 08:55:00
4:15 AM,44.6,38.1,78,30.08,10.0,NW,9.2,-,N/A,,Overcast,310,2013-10-16 09:15:00
4:35 AM,44.6,37.6,76,30.08,10.0,WNW,10.4,-,N/A,,Overcast,290,2013-10-16 09:35:00
4:55 AM,44.2,37.8,78,30.09,10.0,WNW,9.2,-,N/A,,Overcast,300,2013-10-16 09:55:00
5:15 AM,42.6,37.0,81,30.10,10.0,WNW,8.1,-,N/A,,Scattered Clouds,300,2013-10-16 10:15:00
5:35 AM,41.7,36.7,82,30.10,10.0,WNW,6.9,-,N/A,,Clear,290,2013-10-16 10:35:00
5:55 AM,41.0,36.5,84,30.10,10.0,West,8.1,-,N/A,,Clear,280,2013-10-16 10:55:00
6:15 AM,40.3,36.3,86,30.10,10.0,West,9.2,-,N/A,,Clear,280,2013-10-16 11:15:00
6:35 AM,39.7,35.8,86,30.10,10.0,West,9.2,-,N/A,,Clear,280,2013-10-16 11:35:00
6:55 AM,39.0,35.6,88,30.10,10.0,WNW,8.1,-,N/A,,Clear,290,2013-10-16 11:55:00
7:15 AM,38.3,35.2,89,30.09,10.0,West,8.1,-,N/A,,Clear,280,2013-10-16 12:15:00
7:35 AM,37.6,34.9,90,30.10,10.0,WNW,9.2,-,N/A,,Clear,290,2013-10-16 12:35:00
7:55 AM,37.6,34.9,90,30.10,10.0,WNW,9.2,-,N/A,,Clear,290,2013-10-16 12:55:00
8:15 AM,38.1,35.1,89,30.11,10.0,WNW,8.1,-,N/A,,Clear,290,2013-10-16 13:15:00
8:35 AM,39.2,35.2,86,30.11,10.0,WNW,8.1,-,N/A,,Clear,290,2013-10-16 13:35:00
8:55 AM,40.1,35.6,84,30.11,10.0,WNW,10.4,-,N/A,,Clear,300,2013-10-16 13:55:00
9:15 AM,41.9,36.5,81,30.11,10.0,WNW,12.7,-,N/A,,Clear,300,2013-10-16 14:15:00
9:35 AM,43.0,36.7,78,30.11,10.0,NW,10.4,-,N/A,,Clear,310,2013-10-16 14:35:00
9:55 AM,45.0,37.6,75,30.11,10.0,WNW,10.4,-,N/A,,Clear,300,2013-10-16 14:55:00
10:15 AM,46.6,37.4,70,30.10,10.0,NW,10.4,-,N/A,,Clear,310,2013-10-16 15:15:00
10:35 AM,48.2,37.6,67,30.10,10.0,NW,12.7,-,N/A,,Clear,310,2013-10-16 15:35:00
10:55 AM,49.1,36.9,63,30.10,10.0,NW,10.4,16.1,N/A,,Clear,310,2013-10-16 15:55:00
11:15 AM,49.8,36.3,60,30.10,10.0,NW,11.5,-,N/A,,Clear,310,2013-10-16 16:15:00
11:35 AM,50.9,35.8,56,30.10,10.0,NW,10.4,-,N/A,,Clear,320,2013-10-16 16:35:00
11:55 AM,51.3,35.4,55,30.09,10.0,NNW,10.4,-,N/A,,Clear,330,2013-10-16 16:55:00
12:15 PM,52.2,34.7,51,30.09,10.0,NW,8.1,-,N/A,,Clear,310,2013-10-16 17:15:00
12:35 PM,51.8,34.3,51,30.08,10.0,NW,10.4,-,N/A,,Clear,310,2013-10-16 17:35:00
12:55 PM,52.7,31.6,45,30.07,10.0,NW,10.4,-,N/A,,Clear,310,2013-10-16 17:55:00
1:15 PM,53.2,34.7,49,30.06,10.0,WNW,10.4,-,N/A,,Clear,300,2013-10-16 18:15:00
1:35 PM,54.3,34.9,48,30.05,10.0,NW,9.2,-,N/A,,Clear,310,2013-10-16 18:35:00
1:55 PM,54.5,32.9,44,30.04,10.0,West,3.5,-,N/A,,Clear,280,2013-10-16 18:55:00
2:15 PM,54.9,32.7,43,30.03,10.0,WNW,9.2,-,N/A,,Clear,290,2013-10-16 19:15:00
2:35 PM,55.9,33.1,42,30.02,10.0,NW,8.1,-,N/A,,Clear,310,2013-10-16 19:35:00
2:55 PM,55.6,32.5,42,30.02,10.0,NW,5.8,-,N/A,,Clear,310,2013-10-16 19:55:00
3:15 PM,55.9,32.7,41,30.02,10.0,West,3.5,-,N/A,,Clear,280,2013-10-16 20:15:00
3:35 PM,56.5,33.1,41,30.02,10.0,NNW,3.5,-,N/A,,Clear,330,2013-10-16 20:35:00
3:55 PM,56.5,33.8,42,30.00,10.0,West,4.6,-,N/A,,Clear,260,2013-10-16 20:55:00
4:15 PM,56.7,33.8,42,29.99,10.0,West,3.5,-,N/A,,Clear,280,2013-10-16 21:15:00
4:35 PM,56.5,33.1,41,29.99,10.0,WNW,6.9,-,N/A,,Clear,290,2013-10-16 21:35:00
4:55 PM,56.3,32.7,41,29.98,10.0,West,3.5,-,N/A,,Clear,270,2013-10-16 21:55:00
5:15 PM,56.1,32.2,40,29.98,10.0,Calm,Calm,-,N/A,,Clear,0,2013-10-16 22:15:00
5:35 PM,55.9,32.2,41,29.98,10.0,NW,4.6,-,N/A,,Clear,320,2013-10-16 22:35:00
5:55 PM,55.4,32.9,43,29.98,10.0,WNW,5.8,-,N/A,,Clear,300,2013-10-16 22:55:00
6:15 PM,54.5,33.3,45,29.99,10.0,WNW,3.5,-,N/A,,Clear,300,2013-10-16 23:15:00
6:35 PM,54.3,31.6,42,29.99,10.0,Calm,Calm,-,N/A,,Clear,0,2013-10-16 23:35:00
6:55 PM,52.0,33.8,50,29.99,10.0,Calm,Calm,-,N/A,,Clear,0,2013-10-16 23:55:00
7:15 PM,51.4,34.0,51,29.99,10.0,Calm,Calm,-,N/A,,Clear,0,2013-10-17 00:15:00
7:35 PM,48.4,35.6,61,29.98,10.0,Calm,Calm,-,N/A,,Clear,0,2013-10-17 00:35:00
7:55 PM,46.9,37.0,68,29.99,10.0,Calm,Calm,-,N/A,,Clear,0,2013-10-17 00:55:00
8:15 PM,46.4,37.2,70,29.99,10.0,Calm,Calm,-,N/A,,Clear,0,2013-10-17 01:15:00
8:35 PM,43.2,37.2,80,29.99,10.0,NE,4.6,-,N/A,,Clear,40,2013-10-17 01:35:00
8:55 PM,43.7,35.8,74,29.99,10.0,ENE,3.5,-,N/A,,Clear,70,2013-10-17 01:55:00
9:15 PM,42.8,35.6,76,29.99,10.0,ENE,3.5,-,N/A,,Clear,70,2013-10-17 02:15:00
9:35 PM,41.5,35.4,79,29.99,10.0,Calm,Calm,-,N/A,,Clear,0,2013-10-17 02:35:00
9:55 PM,42.4,36.0,78,29.99,10.0,Calm,Calm,-,N/A,,Clear,0,2013-10-17 02:55:00
10:15 PM,41.7,35.6,79,29.99,10.0,Calm,Calm,-,N/A,,Clear,0,2013-10-17 03:15:00
10:35 PM,40.6,35.4,82,29.99,10.0,Calm,Calm,-,N/A,,Clear,0,2013-10-17 03:35:00
10:55 PM,39.7,34.9,83,29.99,10.0,Calm,Calm,-,N/A,,Scattered Clouds,0,2013-10-17 03:55:00
11:15 PM,40.3,36.0,85,29.99,10.0,Calm,Calm,-,N/A,,Scattered Clouds,0,2013-10-17 04:15:00
11:35 PM,39.2,35.2,86,29.98,10.0,South,4.6,-,N/A,,Clear,190,2013-10-17 04:35:00
11:55 PM,38.8,35.6,88,29.97,10.0,Calm,Calm,-,N/A,,Scattered Clouds,0,2013-10-17 04:55:00